Regional Weather Roundup
Issued by NWS

Home | Current Version | Previous Version | Text Only | Print | Product List | Glossary Off
Versions: 1 2 3 4 5 6 7 8 9 10 11 12 13 14 15 16 17 18 19 20 21 22 23 24 25 26 27 28 29 30 31 32 33 34 35 36 37 38 39 40 41 42 43 44 45 46 47 48 49 50

561
ASUS43 KLOT 252109
RWRIL

ILLINOIS REGIONAL WEATHER ROUNDUP
NATIONAL WEATHER SERVICE CHICAGO/ROMEOVILLE IL
400 PM CDT TUE JUL 25 2017

NOTE: "FAIR" INDICATES FEW OR NO CLOUDS BELOW 12,000 FEET WITH NO
SIGNIFICANT WEATHER AND/OR OBSTRUCTIONS TO VISIBILITY.

* THESE STATIONS ARE NOT UNDER NWS QUALITY CONTROL. THEY ALSO MAY NOT
  REPORT WEATHER SUCH AS PRECIPITATION OR FOG.

ILZ001-002-007-009-015-016-024-252200-
NORTHWEST ILLINOIS

CITY           SKY/WX    TMP DP  RH WIND       PRES   REMARKS
MOLINE         MOSUNNY   82  67  60 SE12      30.12F HX  84
STERLING*      MOSUNNY   78  66  66 SE8       30.14F HX  80
SAVANNA*       CLOUDY    79  66  64 SE8       30.14R HX  81
$$

ILZ003-004-008-010-011-017-018-252200-
NORTH CENTRAL ILLINOIS

CITY           SKY/WX    TMP DP  RH WIND       PRES   REMARKS
ROCKFORD       PTSUNNY   80  61  52 S13       30.15F HX  81
FREEPORT*      CLOUDY    75  63  66 S12       30.16S
ROCHELLE*      MOSUNNY   76  63  63 SE7       30.16F
DE KALB*       SUNNY     77  61  57 SE9       30.18F
PERU*          SUNNY    N/A N/A N/A SE9       30.15F
$$

ILZ005-006-012>014-019>023-252200-
NORTHEAST ILLINOIS

CITY           SKY/WX    TMP DP  RH WIND       PRES   REMARKS
CHICAGO-OHARE  PTSUNNY   81  56  42 S9        30.16F HX  81
CHICAGO-MIDWAY PTSUNNY   82  55  39 SE9       30.17F HX  81
AURORA         SUNNY     80  60  50 SE9       30.17F HX  81
LANSING*       SUNNY     79  53  41 SE8       30.19S
JOLIET*        SUNNY     80  61  51 E6        30.18F HX  81
WAUKEGAN       MOSUNNY   75  62  64 SE12      30.17F
DUPAGE AIRPORT SUNNY     79  60  52 SE8       30.17F HX  80
WHEELING       SUNNY     79  61  53 E9        30.18F HX  80
MORRIS*        SUNNY     78  62  56 SE6       30.16F HX  80
ROMEOVILLE*    SUNNY     80  58  46 SE7       30.17F HX  80
NORTHERLY ISL    N/A     75  61  61 E7          N/A
$$

LMZ740>746-252200-
SOUTHERN LAKE MICHIGAN

STATION/POSITION SKY/WX   TEMP    WIND        PRES    VSBY  WAVE
                          AIR SEA DIR/SP/G                  HT/PER
                          (F)     (DEG/KT/KT) (MB)    (MI)  (FT/S)
SOUTHERN BUOY              71 70  180/  4/  6 1023.3          2/ 4
WILMETTE HARBOR            72 72  110/ 12/ 14   N/A           2/ 3
HARRISON CRIB              74     100/ 13/ 14   N/A
BURNHAM HARBOR             75                   N/A
CALUMET HARBOR             74      50/  9/ 11 1021.9R
BURNS HARBOR               78     150/  6/ 13 1022.7S
MICHIGAN CITY              77     100/  7/  8   N/A
MICHIGAN CITY 6N           76 75  140/  2/  4   N/A           1/ 4
ST. JOSEPH                 73 76   40/  6/  8 1022.3          1
$$

ILZ025>027-034>036-040-047-049-050-058-095>099-252200-
WEST-CENTRAL ILLINOIS

CITY           SKY/WX    TMP DP  RH WIND       PRES   REMARKS
QUINCY         SUNNY     88  65  46 SE9       30.09F HX  90
GALESBURG*     MOSUNNY   80  67  64 E7        30.14F HX  83
MACOMB*        MOSUNNY   83  69  62 E8        30.14S HX  86
JACKSONVILLE*  SUNNY     85  68  56 CALM      30.11S HX  88
PITTSFIELD*    MOSUNNY   86  71  61 E8        30.11S HX  91
$$

ILZ028>032-037-038-041>044-048-051>054-059>061-252200-
CENTRAL ILLINOIS

CITY           SKY/WX    TMP DP  RH WIND       PRES   REMARKS
PONTIAC        SUNNY     80  63  56 SE6       30.18S HX  81
BLOOMINGTON    MOSUNNY   83  66  56 NE9       30.16F HX  85
DECATUR        SUNNY     83  66  56 E7        30.14S HX  85
PEORIA         MOSUNNY   82  65  56 SE5       30.13F HX  84
LACON*         MOSUNNY   81  66  60 E8        30.13F HX  83
LINCOLN*       PTSUNNY   83  69  61 E5        30.13F HX  87
SPRINGFIELD    MOSUNNY   87  70  56 E9        30.12F HX  92
TAYLORVILLE    PTSUNNY   85  68  57 SE5       30.12F HX  88
$$

ILZ033-039-045-046-055>057-062-063-252200-
EAST-CENTRAL ILLINOIS

CITY           SKY/WX    TMP DP  RH WIND       PRES   REMARKS
CHAMPAIGN      MOSUNNY   81  66  60 E7        30.15F HX  83
RANTOUL*       SUNNY     83  64  52 E7        30.16S HX  84
MATTOON        PTSUNNY   82  69  64 VRB5      30.13S HX  85
PARIS*         MOSUNNY   80  69  68 E7        30.15F HX  82
$$

ILZ079-100>102-252200-
SOUTHWEST ILLINOIS

CITY           SKY/WX    TMP DP  RH WIND       PRES   REMARKS
ALTON          MOSUNNY   88  73  62 E8        30.10S HX  96
BELLEVILLE     MOSUNNY   89  73  58 E7        30.09S HX  97
CAHOKIA*       PTSUNNY   93  70  46 SE9       30.07S HX  99
SPARTA*        MOSUNNY   90  74  60 SE7       30.08F HX  99
$$

ILZ064>066-069>071-074>076-080>082-084>086-088>090-092>094-252200-
SOUTH-CENTRAL ILLINOIS

CITY           SKY/WX    TMP DP  RH WIND       PRES   REMARKS
CARBONDALE     CLOUDY    90  77  65 E3        30.06F HX 103
CAIRO*         CLOUDY    79  75  89 NE3       30.07S HX  82
EFFINGHAM*     MOSUNNY   85  70  60 E8        30.13F HX  90
MARION         PTSUNNY   90  75  62 NE6       30.08F HX 100
MT. VERNON     SUNNY     87  73  62 SE8       30.10F HX  94
CENTRALIA*     MOSUNNY   88  74  63 SE7       30.09F HX  96
SALEM*         PTSUNNY   87  70  55 SE6       30.10F HX  92
METROPOLIS*    CLOUDY    76  73  90 NE3       30.08F
$$

ILZ067-068-072-073-078-083-087-091-252200-
SOUTHEAST ILLINOIS

CITY           SKY/WX    TMP DP  RH WIND       PRES   REMARKS
LAWRENCEVILLE  SUNNY     85  69  58 E6        30.13F HX  89
FLORA*         CLOUDY    87  69  56 E7        30.12R HX  91
FAIRFIELD*     PTSUNNY   86  71  59 E5        30.10F HX  92
HARRISBURG*    PTSUNNY   87  76  69 E9        30.09F HX  97
ROBINSON*      MOSUNNY   83  68  59 E8        30.13F HX  87
CARMI*         PTSUNNY   86  73  66 E5        30.10S HX  92
$$

ABBREVIATIONS USED IN REMARKS
   TC - TEMPERATURE IN CELSIUS
  WCI - WIND CHILL INDEX
   HX - HEAT INDEX
  VSB - VISIBILITY
$$





USA.gov is the U.S. government's official web portal to all federal, state and local government web resources and services.